Location: *
(43.0409°N, 0.1694°E)
Time: 11:36:16
(UTC+00:00)

Cosmos 2263 Rocket - Pass Details

Date: 03 October 2023
Orbit: 824 x 847 km, 71.0° (Epoch: 01 December)

Event Time Altitude Azimuth Distance (km) Brightness Sun altitude
Rises 04:57:24 0° 173° (S) 3,373 5.4 -12.0°
Reaches altitude 10° 05:00:06 10° 162° (SSE) 2,440 4.8 -11.5°
Maximum altitude 05:04:52 30° 104° (ESE) 1,467 4.3 -10.6°
Drops below altitude 10° 05:09:38 10° 45° (NE) 2,441 5.4 -9.7°
Sets 05:12:20 0° 35° (NE) 3,376 5.9 -9.2°
